Change the Weather History Date:

Tuesday, April 29, 2014

  Actual Average Record
Temperature  
Mean Temperature 48 °F -  
Max Temperature 53 °F 72 °F 89 °F (1962)
Min Temperature 44 °F 47 °F 33 °F (1979)
Degree Days  
Heating Degree Days 16    
Moisture  
Dew Point 36 °F    
Average Humidity 61    
Maximum Humidity 76    
Minimum Humidity 50    
Precipitation  
Precipitation 0.00 in - - ()
Sea Level Pressure  
Sea Level Pressure 29.73 in    
Wind  
Wind Speed 10 mph (West)    
Max Wind Speed 21 mph    
Max Gust Speed 30 mph    
Visibility 10 miles    
Events      
Averages and records for this station are not official NWS values.
T = Trace of Precipitation, MM = Missing Value Source: NWS Daily Summary

Daily Weather History Graph

Daily Weather History Graph

Search for Another Location

Airport or City:

Trip Planner

Search our weather history database for the weather conditions in past years. The results will help you decide how hot, cold, wet, or windy it might be!

Date:

Astronomy

Apr. 29, 2014 Rise Set
Actual Time 6:25 AM CDT 8:03 PM CDT
Civil Twilight 5:58 AM CDT 8:30 PM CDT
Nautical Twilight 5:25 AM CDT 9:03 PM CDT
Astronomical Twilight 4:50 AM CDT 9:38 PM CDT
Moon 6:44 AM CDT (4/29) 8:43 PM CDT (4/29)
Length of Visible Light 14h 32m
Length of Day
13h 37m
New Moon, 0% of the Moon is Illuminated
Apr 29
New Moon
May 6
First Quarter
May 14
Full
May 21
Last Quarter
May 28
New

Hourly Weather History & Observations

Time (CDT) Temp. Windchill Dew Point Humidity Pressure Visibility Wind Dir Wind Speed Gust Speed Precip Events Conditions
12:15 AM 51.8 °F - 41.0 °F 67% 29.63 in 10.0 mi SW 4.6 mph - N/A   Clear
12:35 AM 51.8 °F - 39.2 °F 62% 29.63 in 10.0 mi West 5.8 mph - N/A   Clear
12:55 AM 50.0 °F - 39.2 °F 66% 29.63 in 10.0 mi West 6.9 mph - N/A   Clear
1:15 AM 51.8 °F - 37.4 °F 58% 29.63 in 10.0 mi West 10.4 mph - N/A   Clear
1:35 AM 51.8 °F - 37.4 °F 58% 29.63 in 10.0 mi WSW 5.8 mph - N/A   Clear
1:55 AM 50.0 °F - 37.4 °F 62% 29.63 in 10.0 mi WSW 6.9 mph - N/A   Clear
2:15 AM 51.8 °F - 35.6 °F 54% 29.62 in 10.0 mi West 9.2 mph 17.3 mph N/A   Clear
2:35 AM 51.8 °F - 35.6 °F 54% 29.62 in 10.0 mi WSW 5.8 mph - N/A   Clear
2:55 AM 50.0 °F - 35.6 °F 58% 29.61 in 10.0 mi WSW 6.9 mph - N/A   Clear
3:15 AM 50.0 °F - 35.6 °F 58% 29.62 in 10.0 mi WSW 6.9 mph - N/A   Clear
3:35 AM 48.2 °F - 35.6 °F 62% 29.62 in 10.0 mi SW 5.8 mph - N/A   Clear
3:55 AM 48.2 °F - 35.6 °F 62% 29.62 in 10.0 mi SW 5.8 mph - N/A   Clear
4:15 AM 46.4 °F 43.5 °F 35.6 °F 66% 29.63 in 10.0 mi SW 5.8 mph - N/A   Clear
4:35 AM 46.4 °F 43.5 °F 35.6 °F 66% 29.62 in 10.0 mi SW 5.8 mph - N/A   Clear
4:55 AM 46.4 °F 42.4 °F 33.8 °F 62% 29.62 in 10.0 mi SW 8.1 mph - N/A   Clear
5:15 AM 46.4 °F 42.9 °F 33.8 °F 62% 29.62 in 10.0 mi SW 6.9 mph - N/A   Clear
5:35 AM 46.4 °F 42.9 °F 33.8 °F 62% 29.63 in 10.0 mi SW 6.9 mph - N/A   Clear
5:55 AM 46.4 °F 42.9 °F 33.8 °F 62% 29.63 in 10.0 mi SW 6.9 mph - N/A   Clear
6:15 AM 46.4 °F 42.4 °F 33.8 °F 62% 29.63 in 10.0 mi SW 8.1 mph - N/A   Clear
6:35 AM 46.4 °F 41.5 °F 33.8 °F 62% 29.64 in 10.0 mi WSW 10.4 mph - N/A   Clear
6:55 AM 48.2 °F - 33.8 °F 58% 29.64 in 10.0 mi WSW 10.4 mph - N/A   Clear
7:15 AM 48.2 °F - 35.6 °F 62% 29.64 in 10.0 mi WSW 9.2 mph - N/A   Clear
7:35 AM 48.2 °F - 35.6 °F 62% 29.64 in 10.0 mi WSW 13.8 mph 20.7 mph N/A   Clear
7:55 AM 51.8 °F - 35.6 °F 54% 29.65 in 10.0 mi West 15.0 mph 18.4 mph N/A   Clear
8:15 AM 51.8 °F - 35.6 °F 54% 29.65 in 10.0 mi West 13.8 mph - N/A   Clear
8:35 AM 53.6 °F - 35.6 °F 51% 29.65 in 10.0 mi West 12.7 mph 20.7 mph N/A   Clear
8:55 AM 53.6 °F - 35.6 °F 51% 29.65 in 10.0 mi West 15.0 mph 25.3 mph N/A   Clear
9:15 AM 53.6 °F - 35.6 °F 51% 29.65 in 10.0 mi West 18.4 mph 27.6 mph N/A   Scattered Clouds
9:35 AM 53.6 °F - 35.6 °F 51% 29.66 in 10.0 mi West 17.3 mph 29.9 mph N/A   Overcast
9:55 AM 51.8 °F - 35.6 °F 54% 29.67 in 10.0 mi West 18.4 mph 28.8 mph N/A   Overcast
10:15 AM 51.8 °F - 33.8 °F 50% 29.68 in 10.0 mi West 20.7 mph 28.8 mph N/A   Overcast
10:35 AM 53.6 °F - 35.6 °F 51% 29.68 in 10.0 mi WSW 20.7 mph 26.5 mph N/A   Overcast
10:55 AM 51.8 °F - 35.6 °F 54% 29.69 in 10.0 mi West 13.8 mph 26.5 mph N/A   Overcast
11:15 AM 51.8 °F - 35.6 °F 54% 29.69 in 10.0 mi West 13.8 mph 23.0 mph N/A   Overcast
11:35 AM 53.6 °F - 35.6 °F 51% 29.70 in 10.0 mi WSW 18.4 mph 27.6 mph N/A   Overcast
11:55 AM 53.6 °F - 35.6 °F 51% 29.70 in 10.0 mi West 16.1 mph 23.0 mph N/A   Overcast
12:15 PM 51.8 °F - 35.6 °F 54% 29.71 in 10.0 mi West 16.1 mph 27.6 mph N/A   Overcast
12:35 PM 51.8 °F - 35.6 °F 54% 29.72 in 10.0 mi West 12.7 mph 20.7 mph N/A   Overcast
12:55 PM 51.8 °F - 35.6 °F 54% 29.72 in 10.0 mi West 12.7 mph 25.3 mph N/A   Overcast
1:15 PM 51.8 °F - 37.4 °F 58% 29.73 in 10.0 mi West 11.5 mph - N/A   Overcast
1:35 PM 51.8 °F - 37.4 °F 58% 29.74 in 10.0 mi West 13.8 mph 24.2 mph N/A   Overcast
1:55 PM 53.6 °F - 37.4 °F 54% 29.74 in 10.0 mi West 15.0 mph 20.7 mph N/A   Overcast
2:15 PM 51.8 °F - 37.4 °F 58% 29.75 in 10.0 mi West 19.6 mph 24.2 mph N/A   Overcast
2:35 PM 51.8 °F - 35.6 °F 54% 29.75 in 10.0 mi West 18.4 mph 24.2 mph N/A   Overcast
2:55 PM 51.8 °F - 35.6 °F 54% 29.76 in 10.0 mi West 17.3 mph 25.3 mph N/A   Overcast
3:15 PM 51.8 °F - 37.4 °F 58% 29.76 in 10.0 mi West 16.1 mph - N/A   Overcast
3:35 PM 51.8 °F - 37.4 °F 58% 29.76 in 10.0 mi West 12.7 mph 17.3 mph N/A   Overcast
4:15 PM 51.8 °F - 37.4 °F 58% 29.77 in 10.0 mi West 11.5 mph - N/A   Overcast
4:35 PM 51.8 °F - 37.4 °F 58% 29.78 in 10.0 mi West 13.8 mph - N/A   Overcast
4:55 PM 51.8 °F - 37.4 °F 58% 29.79 in 10.0 mi West 12.7 mph - N/A   Overcast
5:15 PM 51.8 °F - 37.4 °F 58% 29.80 in 10.0 mi WNW 10.4 mph - N/A   Overcast
5:35 PM 50.0 °F - 37.4 °F 62% 29.80 in 10.0 mi WNW 10.4 mph 18.4 mph N/A   Overcast
5:55 PM 50.0 °F - 37.4 °F 62% 29.81 in 10.0 mi West 13.8 mph 23.0 mph N/A   Overcast
6:15 PM 48.2 °F - 39.2 °F 71% 29.83 in 9.0 mi WNW 9.2 mph - N/A   Overcast
6:35 PM 48.2 °F - 39.2 °F 71% 29.83 in 10.0 mi WNW 9.2 mph 18.4 mph N/A   Overcast
6:55 PM 48.2 °F - 39.2 °F 71% 29.83 in 10.0 mi West 8.1 mph - N/A   Overcast
7:15 PM 48.2 °F - 39.2 °F 71% 29.83 in 10.0 mi West 9.2 mph - N/A   Overcast
7:35 PM 48.2 °F - 39.2 °F 71% 29.84 in 10.0 mi West 8.1 mph - N/A   Overcast
7:55 PM 48.2 °F - 39.2 °F 71% 29.85 in 10.0 mi West 6.9 mph - N/A   Overcast
8:15 PM 46.4 °F 42.9 °F 39.2 °F 76% 29.85 in 10.0 mi West 6.9 mph - N/A   Overcast
8:35 PM 48.2 °F - 37.4 °F 66% 29.85 in 10.0 mi West 8.1 mph - N/A   Overcast
8:55 PM 48.2 °F - 37.4 °F 66% 29.86 in 10.0 mi West 8.1 mph - N/A   Overcast
9:15 PM 48.2 °F - 37.4 °F 66% 29.86 in 10.0 mi West 8.1 mph - N/A   Overcast
9:35 PM 48.2 °F - 37.4 °F 66% 29.87 in 10.0 mi NW 11.5 mph - N/A   Overcast
9:55 PM 46.4 °F 40.7 °F 37.4 °F 71% 29.87 in 10.0 mi WNW 12.7 mph - N/A   Overcast
10:15 PM 46.4 °F 40.1 °F 35.6 °F 66% 29.88 in 10.0 mi NW 15.0 mph 21.9 mph N/A   Overcast
10:35 PM 46.4 °F 40.4 °F 35.6 °F 66% 29.89 in 10.0 mi NW 13.8 mph 17.3 mph N/A   Overcast
10:55 PM 46.4 °F 41.5 °F 35.6 °F 66% 29.89 in 10.0 mi WNW 10.4 mph - N/A   Overcast
11:15 PM 44.6 °F 39.2 °F 35.6 °F 71% 29.89 in 10.0 mi NW 10.4 mph - N/A   Overcast
11:35 PM 44.6 °F 38.8 °F 35.6 °F 71% 29.89 in 10.0 mi WNW 11.5 mph - N/A   Overcast
11:55 PM 44.6 °F 38.4 °F 35.6 °F 71% 29.89 in 10.0 mi NW 12.7 mph 18.4 mph N/A   Overcast